NEW MELONES RESERVOIR (NML)

Elevation: 1135' · STANISLAUS R basin · Operator: US Bureau of Reclamation

Provisional data, subject to change.
Query executed Wednesday at 17:09:51   clock

Select a sensor type for a plot of data.
Note: Reservoir Flows are daily averages.

Earlier

Date RES ELE    STORAGE    RES CHG    TOC STO    ABV TOC    OUTFLOW    INFLOW    EVAP    FNF    RIV REL    PPT INC    SPILL    DIS PWR   
 FEET   AF   AF   AF   AF   CFS   CFS   CFS   CFS   CFS   INCHES   CFS   CFS  
09/02/2014 867.69 548476 -2128 2420000 -1871524 1396 397 74 309 0 0.00 0 1396
09/03/2014 867.26 546352 -2124 2420000 -1873648 1375 366 62 149 0 0.00 0 1375
09/04/2014 866.98 544969 -1383 2420000 -1875031 994 359 62 229 0 0.00 0 994
09/05/2014 866.59 543053 -1916 2420000 -1876947 1270 366 62 232 0 0.00 0 1270
09/06/2014 866.26 541431 -1622 2420000 -1878569 1146 385 57 250 0 0.00 0 1146
09/07/2014 866.16 540940 -491 2420000 -1879060 530 339 57 206 0 0.00 0 530
09/08/2014 865.78 539079 -1861 2420000 -1880921 1219 343 62 213 0 0.00 0 1219
09/09/2014 865.42 537320 -1759 2420000 -1882680 1218 385 54 255 0 0.00 0 1218
09/10/2014 865.12 535854 -1466 2420000 -1884146 1102 417 54 287 0 0.00 0 1102
09/11/2014 864.79 534248 -1606 2420000 -1885752 1189 439 60 294 0 0.00 0 1189
09/12/2014 864.55 533082 -1166 2420000 -1886918 948 417 57 272 0 0.00 0 948
09/13/2014 864.30 531867 -1215 2420000 -1888133 933 378 58 220 0 0.00 0 933
09/14/2014 864.25 531625 -242 2420000 -1888375 474 423 71 285 0 0.00 0 474
09/15/2014 863.97 530265 -1360 2420000 -1889735 1027 399 58 260 0 0.00 0 1027
09/16/2014 863.74 529154 -1111 2410200 -1881046 920 424 64 284 0 0.00 0 920
09/17/2014 863.52 528091 -1063 2400400 -1872309 903 414 47 264 0 0.00 0 903
09/18/2014 863.32 527124 -967 2390700 -1863576 853 417 52 280 0 0.00 0 853
09/19/2014 862.99 525530 -1594 2380900 -1855370 1089 330 45 199 0 0.00 0 1089
09/20/2014 862.76 524425 -1105 2371100 -1846675 853 340 44 203 0 0.00 0 853
09/21/2014 862.69 524089 -336 2361300 -1837211 480 381 70 264 0 0.00 0 480
09/22/2014 862.38 522600 -1489 2351500 -1828900 1133 424 42 289 0 0.00 0 1133
09/23/2014 862.14 521447 -1153 2341700 -1820253 977 432 36 309 0 0.00 0 977
09/24/2014 861.88 520201 -1246 2332000 -1811799 988 403 43 267 0 0.00 0 988
09/25/2014 861.85 520057 -144 2322200 -1802143 375 355 53 207 0 0.00 0 375
09/26/2014 861.81 519866 -191 2312400 -1792534 418 334 12 210 0 0.24 0 418
09/27/2014 861.71 519388 -478 2302600 -1783212 545 354 50 245 0 0.23 0 545
09/28/2014 861.84 520010 622 2292800 -1772790 35 371 22 261 0 0.40 0 35
09/29/2014 861.79 519771 -239 2283000 -1763229 413 312 19 162 0 0.00 0 413
09/30/2014 861.78 519723 -48 2273300 -1753577 413 417 28 292 0 0.00 0 413
10/01/2014 -- -- -- -- -- -- -- -- -- -- -- -- --

Later | Latest

Warning! This data is preliminary and subject to revision.

Download Data Now Download Data Now | Show NML Map | Plot NML Data | 1 Month NML Data | Real-Time NML Data | NML Info